Holbrook, NY

7:33 PM EDT on September 29, 2016 (GMT -0400)
Long Island Mac Arthur

Weather History for KISP - September, 2013

Change the Weather History Date:

Sunday, September 22, 2013

  Actual Average Record
Temperature  
Mean Temperature 64 °F 63 °F  
Max Temperature 72 °F 72 °F 83 °F (2005)
Min Temperature 55 °F 55 °F 38 °F (1997)
Degree Days  
Heating Degree Days 1 3  
Month to date heating degree days 44 34  
Since 1 July heating degree days 44 39  
Cooling Degree Days 0 2  
Month to date cooling degree days 84 82  
Year to date cooling degree days 931 768  
Growing Degree Days 14 (Base 50)    
Moisture  
Dew Point 57 °F    
Average Humidity 67    
Maximum Humidity 93    
Minimum Humidity 41    
Precipitation  
Precipitation 0.60 in 0.12 in 1.32 in (1994)
Month to date precipitation 1.83 2.58  
Year to date precipitation 30.39 33.72  
Snow  
Snow 0.00 in 0.00 in - ()
Month to date snowfall 0.0 0.0  
Since 1 July snowfall 0.0 0.0  
Snow Depth 0.00 in    
Sea Level Pressure  
Sea Level Pressure 29.71 in    
Wind  
Wind Speed 11 mph (West)    
Max Wind Speed 21 mph    
Max Gust Speed 31 mph    
Visibility 9 miles    
Events Rain    
T = Trace of Precipitation, MM = Missing Value Source: NWS Daily Summary

Daily Weather History Graph

Daily Weather History Graph

Search for Another Location

Airport or City:

Trip Planner

Search our weather history database for the weather conditions in past years. The results will help you decide how hot, cold, wet, or windy it might be!

Date:

Astronomy

Sep. 22, 2013 Rise Set
Actual Time 6:40 AM EDT 6:49 PM EDT
Civil Twilight 6:12 AM EDT 7:16 PM EDT
Nautical Twilight 5:40 AM EDT 7:48 PM EDT
Astronomical Twilight 5:08 AM EDT 8:21 PM EDT
Moon 8:35 PM EDT (9/22) 9:59 AM EDT (9/22)
Length of Visible Light 13h 03m
Length of Day
12h 09m
Waning Gibbous, 89% of the Moon is Illuminated
Sep 22
Waning Gibbous
Sep 26
Last Quarter
Oct 4
New
Oct 11
First Quarter
Oct 18
Full

Hourly Weather History & Observations

Time (EDT) Temp. Dew Point Humidity Pressure Visibility Wind Dir Wind Speed Gust Speed Precip Events Conditions
12:56 AM 70.0 °F 66.0 °F 87% 29.67 in 10.0 mi South 15.0 mph 23.0 mph 0.00 in   Overcast
1:13 AM 69.8 °F 66.2 °F 88% 29.67 in 10.0 mi South 13.8 mph 21.9 mph 0.00 in Rain Light Rain
1:24 AM 69.8 °F 66.2 °F 88% 29.67 in 8.0 mi South 12.7 mph 24.2 mph 0.01 in Rain Light Rain
1:33 AM 69.8 °F 66.2 °F 88% 29.67 in 6.0 mi SSW 17.3 mph 24.2 mph 0.04 in Rain Rain
1:41 AM 69.8 °F 66.2 °F 88% 29.66 in 9.0 mi South 11.5 mph 24.2 mph 0.06 in Rain Light Rain
1:53 AM 69.8 °F 66.2 °F 88% 29.66 in 10.0 mi SSW 12.7 mph 20.7 mph 0.07 in Rain Light Rain
1:56 AM 69.1 °F 66.9 °F 93% 29.66 in 10.0 mi SSW 13.8 mph 20.7 mph 0.07 in Rain Light Rain
2:13 AM 69.8 °F 66.2 °F 88% 29.66 in 6.0 mi South 18.4 mph 27.6 mph 0.04 in Rain Rain
2:48 AM 69.8 °F 66.2 °F 88% 29.65 in 10.0 mi SSW 15.0 mph 21.9 mph 0.13 in Rain Light Rain
2:56 AM 69.1 °F 66.0 °F 90% 29.64 in 10.0 mi SSW 13.8 mph 21.9 mph 0.14 in Rain Light Rain
3:05 AM 69.8 °F 66.2 °F 88% 29.64 in 10.0 mi South 12.7 mph 24.2 mph 0.01 in Rain Light Rain
3:19 AM 69.8 °F 66.2 °F 88% 29.65 in 5.0 mi SW 13.8 mph 31.1 mph 0.05 in Rain Rain
3:26 AM 66.2 °F 62.6 °F 88% 29.65 in 2.5 mi WNW 15.0 mph 26.5 mph 0.14 in Rain Heavy Rain
3:31 AM 64.4 °F 60.8 °F 88% 29.65 in 2.0 mi NW 12.7 mph 24.2 mph 0.19 in Rain Heavy Rain
3:40 AM 64.4 °F 60.8 °F 88% 29.64 in 3.0 mi NNW 4.6 mph - 0.24 in Rain Heavy Rain
3:56 AM 64.0 °F 62.1 °F 93% 29.66 in 6.0 mi West 4.6 mph - 0.29 in Rain Rain
4:56 AM 63.0 °F 61.0 °F 93% 29.65 in 10.0 mi NNW 4.6 mph - 0.07 in Rain Light Rain
5:56 AM 63.0 °F 61.0 °F 93% 29.68 in 10.0 mi West 4.6 mph - 0.03 in   Overcast
6:56 AM 63.0 °F 61.0 °F 93% 29.68 in 10.0 mi West 3.5 mph - N/A   Overcast
7:56 AM 63.0 °F 60.1 °F 90% 29.69 in 10.0 mi West 6.9 mph - 0.00 in Rain Light Rain
8:56 AM 64.9 °F 61.0 °F 87% 29.70 in 10.0 mi WNW 8.1 mph - 0.00 in   Mostly Cloudy
9:56 AM 66.0 °F 59.0 °F 78% 29.71 in 10.0 mi WNW 9.2 mph - N/A   Mostly Cloudy
10:56 AM 68.0 °F 57.0 °F 68% 29.72 in 10.0 mi NW 12.7 mph - N/A   Mostly Cloudy
11:56 AM 70.0 °F 55.0 °F 59% 29.72 in 10.0 mi NW 13.8 mph - N/A   Scattered Clouds
12:56 PM 72.0 °F 46.9 °F 41% 29.72 in 10.0 mi NW 13.8 mph - N/A   Scattered Clouds
1:56 PM 71.1 °F 46.9 °F 42% 29.72 in 10.0 mi NW 16.1 mph 21.9 mph N/A   Scattered Clouds
2:56 PM 70.0 °F 46.9 °F 44% 29.73 in 10.0 mi NW 11.5 mph 23.0 mph N/A   Scattered Clouds
3:56 PM 69.1 °F 46.0 °F 44% 29.73 in 10.0 mi WNW 15.0 mph - N/A   Scattered Clouds
4:56 PM 66.0 °F 45.0 °F 47% 29.74 in 10.0 mi NW 15.0 mph 23.0 mph N/A   Mostly Cloudy
5:56 PM 64.9 °F 45.0 °F 48% 29.76 in 10.0 mi WNW 11.5 mph - N/A   Scattered Clouds
6:56 PM 62.1 °F 46.0 °F 56% 29.78 in 10.0 mi WNW 5.8 mph - N/A   Scattered Clouds
7:56 PM 61.0 °F 45.0 °F 56% 29.81 in 10.0 mi NW 6.9 mph - N/A   Scattered Clouds
8:56 PM 62.1 °F 45.0 °F 53% 29.83 in 10.0 mi NNW 15.0 mph 21.9 mph N/A   Mostly Cloudy
9:56 PM 60.1 °F 43.0 °F 53% 29.86 in 10.0 mi NNW 12.7 mph 20.7 mph N/A   Mostly Cloudy
10:56 PM 57.0 °F 43.0 °F 59% 29.88 in 10.0 mi North 12.7 mph - N/A   Scattered Clouds
11:56 PM 55.0 °F 41.0 °F 59% 29.88 in 10.0 mi North 11.5 mph - N/A   Partly Cloudy